Home > Weather > Bielsko-Biała > Past weeks

Flag for Poland Past Weather in Bielsko-Biała, Poland — Yesterday and Last 2 Weeks

Now
62 °F

Thundershowers. Overcast.


Feels Like: 62 °F
Forecast: 59 / 74 °F
Wind: 1 mph from North

Location: Katowice

Current Time: May 29, 2016 at 9:52:52 AM

Latest Report: May 29, 2016 at 8:00 AM


Visibility: 6 mi

Pressure: 29.88 "Hg

Humidity: 87%

Dew Point: 58 °F

Location of Bielsko-BiałaLocation

Past Weather in Bielsko-Biała — Graph

°F

Bielsko-Biała Temperature Yesterday

Maximum temperature yesterday: 78 °F (at 1:00 PM)
Minimum temperature yesterday: 57 °F (at 5:00 AM)
Average temperature yesterday: 68 °F

High & Low Weather Summary for the Past Weeks

 TemperatureHumidityPressure
High80 °F (May 23, 4:00 PM)99% (May 27, 7:00 AM)30.11 "Hg (May 27, 7:00 AM)
Low35 °F (May 16, 4:00 AM)26% (May 20, 5:00 PM)29.41 "Hg (May 14, 8:00 AM)
Average58 °F68%29.93 "Hg
* Reported May 14 8:00 AM — May 29 8:00 AM, Bielsko-Biała, Weather by CustomWeather, © 2016

Note: Actual official high and low records may vary slightly from our data, if they occured in-between our weather recording intervals... More about our weather records

Advertising

Bielsko-Biała Weather History for the Previous 24 Hours

Scroll right to see more
 ConditionsComfort  
Time TempWeatherWind HumidityBarometerVisibility
8:00 AM
Sun, May 29
62 °FThundershowers. Overcast.1 mph87%29.88 "Hg6 mi
7:00 AM62 °FOvercast.2 mph88%29.88 "Hg9 mi
6:00 AM62 °FOvercast.1 mph79%29.88 "Hg12 mi
5:00 AM60 °FOvercast.1 mph84%29.87 "Hg9 mi
4:00 AM60 °FOvercast.2 mph86%29.88 "Hg9 mi
3:00 AM61 °FOvercast.1 mph86%29.90 "Hg9 mi
2:00 AM61 °FOvercast.No wind88%29.93 "Hg9 mi
1:00 AM61 °FOvercast.1 mph88%29.94 "Hg12 mi
12:00 AM65 °FOvercast.1 mph76%29.93 "Hg12 mi
11:00 PM
Sat, May 28
65 °FOvercast.1 mph75%29.92 "Hg12 mi
10:00 PM66 °FOvercast.1 mph70%29.94 "Hg12 mi
9:00 PM67 °FOvercast.1 mph67%29.94 "Hg12 mi
8:00 PM68 °FOvercast.2 mph67%29.93 "Hg12 mi
7:00 PM71 °FOvercast.3 mph62%29.93 "Hg19 mi
6:00 PM75 °FOvercast.5 mph53%29.92 "Hg12 mi
5:00 PM77 °FOvercast.3 mph50%29.90 "Hg12 mi
4:00 PM75 °FOvercast.2 mph55%29.91 "Hg9 mi
3:00 PM76 °FOvercast.1 mph48%29.92 "Hg9 mi
2:00 PM77 °FPartly sunny.3 mph46%29.93 "Hg19 mi
1:00 PM78 °FPartly sunny.3 mph45%29.94 "Hg19 mi
12:00 PM76 °FPartly sunny.3 mph50%29.96 "Hg19 mi
11:00 AM74 °FPartly sunny.3 mph59%29.97 "Hg19 mi
10:00 AM70 °FPartly sunny.3 mph61%29.98 "Hg19 mi
9:00 AM68 °FOvercast.2 mph66%30.00 "Hg19 mi
Weather by CustomWeather, © 2016

See weather overviewHow to use our weather pages